Cloud_Cover
100 100 100 100 100 100 100 100 100 100 100 100 100 100 100 100 100 100 100 100 100 100 100 100 100 100 100 100 100 100 100 100 100 100 100 100 100 100 100 79 13 49 67 54 98 100 80 5 10 16 58 94 47 38
100 100 100 100 100 100 100 100 100 100 100 100 100 77 100 100 100 100 100 100 100 100 100 100 100 100 100 100 100 100 100 100 100 100 83 100 100 73 22 33 68 45 12 62 65 12 7 46 62 98 97 99 97 12
100 100 100 100 100 100 100 100 100 100 100 100 100 100 100 100 100 100 100 100 100 100 100 100 100 100 100 100 100 100 100 100 100 100 60 84 17 5 5 5 5 5 5 94 46 81 45 100 100 100 100 100 100 100
100 100 100 100 100 100 100 100 100 100 100 100 93 100 100 100 100 100 100 100 100 100 100 100 100 100 100 100 86 100 100 100 92 33 5 24 5 0 5 1 0 5 5 1 1 10 4 10 76 100 96 94 100 100
100 100 100 100 100 100 100 100 100 100 99 100 100 100 100 100 100 100 100 100 100 100 100 100 98 100 100 100 95 99 92 11 5 5 54 5 5 1 5 1 4 3 0 0 0 0 0 0 0 1 3 3 94 90
100 100 100 100 100 100 100 100 100 100 100 100 100 100 100 100 100 100 100 100 100 100 100 100 100 100 94 10 5 5 8 5 6 8 27 5 0 2 43 48 0 0 0 0 0 0 3 0 0 0 0 0 0 0
100 100 100 100 100 100 100 100 100 100 100 100 100 100 100 100 100 100 100 100 100 100 100 100 100 98 90 41 42 5 2 0 5 43 74 5 5 8 70 25 0 0 5 20 100 93 10 3 17 27 88 59 12 1
100 100 100 100 100 100 100 100 100 100 100 100 100 100 100 100 100 100 100 100 100 100 76 87 50 5 5 5 5 5 14 47 7 16 66 5 35 44 85 2 5 84 92 93 100 100 46 5 6 48 51 12 5 5
100 100 100 100 100 100 100 100 100 100 100 100 100 100 100 100 100 100 100 100 96 59 60 46 9 5 0 3 4 5 7 79 70 88 71 73 96 60 93 50 77 98 100 100 100 100 95 77 82 100 100 55 73 78
100 100 100 100 100 100 100 100 100 100 100 100 100 100 100 100 100 100 100 95 23 95 80 62 14 5 2 5 5 5 43 79 99 8 54 93 50 98 100 100 100 100 100 100 100 100 100 100 100 100 100 81 100 85
100 100 100 100 100 100 100 100 100 100 100 100 100 100 100 100 92 31 28 21 42 5 37 24 5 5 1 5 5 14 15 52 89 64 100 82 98 99 100 100 100 100 100 100 100 100 100 100 100 100 94 100 100 72
100 100 100 100 100 100 100 100 100 100 93 93 62 42 34 6 27 16 80 72 7 5 5 5 5 5 9 20 85 69 36 67 80 58 99 100 100 98 99 100 100 100 98 82 100 100 100 100 100 100 100 100 100 85
100 100 100 100 100 95 73 34 31 26 18 17 26 34 10 58 18 2 2 6 57 5 5 29 5 7 7 45 69 98 99 70 77 98 99 96 100 100 100 100 100 100 100 100 100 100 100 100 100 100 100 100 100 99
100 100 100 100 94 78 43 27 51 20 5 10 4 2 27 29 5 6 5 5 5 5 67 67 11 8 52 48 91 100 28 45 94 98 99 100 100 99 93 100 99 100 100 100 100 100 100 100 100 100 100 100 100 70
100 95 43 30 74 88 79 40 13 4 5 63 5 0 92 10 39 34 32 36 12 45 9 20 34 70 72 96 89 57 82 70 99 100 98 73 96 100 100 100 100 100 100 100 100 100 100 100 100 100 100 100 81 5
13 10 12 5 16 12 20 0 3 5 24 5 5 79 99 37 29 91 85 52 19 63 45 71 82 95 85 88 97 60 98 99 100 100 78 77 99 100 100 100 100 100 100 100 100 100 100 100 100 100 100 99 72 98
0 28 8 38 6 61 5 7 6 47 7 9 50 52 79 84 86 62 65 31 57 57 97 100 84 5 37 97 86 45 85 36 94 86 64 38 100 100 100 100 100 100 100 100 100 100 100 100 100 100 100 100 100 97
5 5 5 37 5 5 25 79 98 90 82 95 86 79 99 82 78 81 70 80 77 95 79 100 95 95 92 92 17 5 75 100 100 93 34 63 66 100 100 100 100 100 100 100 100 100 100 100 100 100 100 100 100 100
11 24 22 4 5 8 78 87 76 59 84 93 99 96 100 95 80 85 98 100 100 100 100 100 92 98 39 14 53 73 97 100 98 92 64 66 100 74 100 100 100 100 97 100 100 100 100 100 100 100 100 100 100 100
32 38 7 5 2 19 61 90 95 100 91 79 92 85 90 87 94 100 100 100 100 100 100 98 48 33 68 83 92 95 90 100 100 100 99 99 82 94 95 100 100 99 100 100 100 100 100 100 100 100 100 100 100 100
60 100 42 5 9 5 28 78 69 98 95 85 87 84 77 98 100 100 100 100 100 97 100 63 84 86 91 76 94 79 100 100 100 100 98 96 100 99 100 100 87 100 100 100 100 100 100 99 100 100 100 100 100 100
64 53 50 95 45 43 62 95 100 95 84 68 86 97 100 98 95 97 91 95 83 78 94 80 78 92 27 95 99 92 97 100 96 100 98 100 100 83 95 99 100 100 100 100 100 100 100 94 100 100 100 100 100 100
72 25 45 95 42 59 45 98 59 71 44 29 43 21 31 78 95 92 84 89 94 98 92 87 89 76 100 100 85 80 96 89 100 100 100 100 100 100 100 100 100 100 95 100 100 100 100 100 100 100 100 100 100 100
23 15 78 71 78 68 75 99 34 35 16 22 92 23 6 94 96 98 100 100 100 100 100 100 100 100 100 96 91 78 89 100 100 97 100 100 100 100 100 100 100 100 100 100 100 100 100 100 100 100 100 100 100 100
36 34 57 100 89 69 44 19 38 5 5 71 60 5 48 91 100 100 100 100 100 100 100 100 100 100 100 96 100 100 100 100 100 100 100 100 100 100 100 100 100 100 100 100 100 100 100 100 100 100 100 100 100 100
74 50 50 90 86 11 60 6 66 7 37 73 57 5 76 100 100 100 100 100 100 100 100 100 100 100 100 100 100 100 100 100 100 100 100 100 100 100 100 100 100 100 100 100 100 100 100 100 100 100 100 100 100 100
92 73 60 78 89 92 50 48 30 19 92 87 46 80 88 100 100 100 100 100 100 100 100 100 100 100 100 100 100 100 100 100 100 100 100 100 100 100 100 100 100 100 100 100 100 100 100 100 100 100 100 100 100 100
89 87 13 61 94 71 75 76 73 80 48 26 88 64 68 100 100 100 100 100 100 100 100 100 100 100 100 100 100 100 100 100 100 100 100 100 100 100 100 100 100 100 100 100 100 100 100 100 100 100 100 100 100 100
63 38 7 54 60 55 60 21 20 8 58 36 32 65 98 100 100 100 100 100 100 100 100 100 100 100 100 100 100 100 100 100 100 100 100 100 100 100 100 100 100 100 100 100 100 100 100 100 100 100 100 100 100 100
58 80 52 72 26 30 57 64 70 72 41 85 86 54 94 92 99 100 100 100 100 100 100 100 100 100 100 100 100 100 100 100 100 100 100 100 100 100 100 100 100 100 100 100 100 100 100 100 100 100 100 100 100 100
96 62 32 54 19 75 84 73 74 23 65 96 80 82 79 93 100 99 100 100 100 100 100 100 100 100 100 100 100 100 100 100 100 100 100 100 100 100 100 100 100 100 100 100 100 100 100 100 100 100 100 100 100 100
75 93 60 31 28 60 71 76 93 81 90 91 78 96 88 100 100 96 100 100 100 100 100 100 100 100 100 100 100 100 100 100 100 100 100 100 100 100 100 100 100 100 100 100 100 100 100 100 100 100 100 100 100 100
73 78 85 60 52 22 34 65 83 64 86 94 96 93 82 94 99 98 93 92 100 100 100 100 100 100 100 100 100 100 100 100 100 100 100 100 100 100 100 100 100 100 100 100 100 100 100 100 100 100 100 100 100 100